CDT,Max TemperatureF,Mean TemperatureF,Min TemperatureF,Max Dew PointF,MeanDew PointF,Min DewpointF,Max Humidity, Mean Humidity, Min Humidity, Max Sea Level PressureIn, Mean Sea Level PressureIn, Min Sea Level PressureIn, Max VisibilityMiles, Mean VisibilityMiles, Min VisibilityMiles, Max Wind SpeedMPH, Mean Wind SpeedMPH, Max Gust SpeedMPH,PrecipitationIn, CloudCover, Events, WindDirDegrees
2013-5-1,51,43,35,34,27,25,87,58,46,30.51,30.31,29.99,10,10,2,18,13,30,0.00,3,Snow,327
2013-5-2,48,40,33,28,24,19,70,54,34,30.59,30.51,30.45,10,10,10,25,14,31,0.00,0,,354
2013-5-3,44,37,30,36,27,23,100,69,46,30.45,30.28,30.17,10,10,7,17,11,25,0.00,5,Rain,17
2013-5-4,42,38,33,41,37,34,100,96,87,30.19,30.16,30.14,10,9,3,18,11,21,0.00,8,Rain,25
2013-5-5,62,50,39,50,43,37,100,86,63,30.19,30.15,30.10,10,10,7,10,6,,0.00,6,,352
2013-5-6,71,56,42,52,47,43,100,72,43,30.13,30.08,30.03,10,10,7,7,3,,0.00,2,,302
2013-5-7,78,62,46,54,46,37,100,59,24,30.08,30.02,29.96,10,9,2,9,1,,0.00,1,,167
2013-5-8,66,60,55,61,55,45,100,84,52,30.03,30.00,29.96,10,9,5,13,4,,0.00,6,Rain,360
2013-5-9,57,50,42,57,51,37,100,90,71,30.14,30.05,29.98,10,9,2,18,9,26,0.00,7,Rain,27
2013-5-10,66,50,35,43,29,21,81,46,18,30.15,30.05,29.90,10,10,10,25,7,33,0.00,1,Rain,355
2013-5-11,53,46,39,39,25,18,71,45,26,30.20,30.13,29.96,10,10,10,30,19,38,0.00,1,,324
2013-5-12,60,46,33,27,21,16,75,39,20,30.24,30.18,30.10,10,10,10,17,7,25,0.00,0,,319
2013-5-13,84,62,41,48,34,25,61,39,25,30.10,29.90,29.64,10,10,10,16,4,23,0.00,1,Rain,170
2013-5-14,95,74,53,52,42,27,72,35,12,29.75,29.62,29.49,10,10,10,26,8,34,0.00,1,Rain,273
2013-5-15,80,66,51,46,44,41,76,46,26,29.94,29.86,29.76,10,10,10,18,8,25,0.00,1,,269
2013-5-16,82,68,53,46,41,32,72,37,21,29.93,29.89,29.85,10,10,10,18,8,28,0.00,2,Rain,78
2013-5-17,68,62,57,57,52,30,100,82,24,29.98,29.94,29.89,10,7,2,20,14,26,0.00,8,Rain,105
2013-5-18,80,68,57,70,64,57,100,89,61,29.95,29.87,29.77,10,7,2,17,11,23,0.00,4,Rain-Thunderstorm,128
2013-5-19,80,71,62,70,65,63,100,91,69,29.77,29.67,29.57,10,8,2,15,7,22,0.00,4,Rain-Thunderstorm,138
2013-5-20,71,66,60,64,61,55,100,89,64,29.58,29.53,29.49,10,8,0,13,5,18,0.00,7,Fog-Rain,147
2013-5-21,60,53,46,61,53,46,100,100,94,29.74,29.61,29.50,10,6,0,14,9,22,0.00,8,Rain,57
2013-5-22,51,48,44,52,47,45,100,97,82,30.03,29.83,29.72,10,10,5,20,12,28,0.00,7,Rain,31
2013-5-23,64,54,44,45,39,34,100,62,32,30.33,30.24,30.04,10,10,2,15,8,20,0.00,0,,48
2013-5-24,68,54,39,54,41,32,94,61,35,30.36,30.29,30.17,10,10,7,18,8,25,0.00,3,Rain-Thunderstorm,128
2013-5-25,60,56,53,54,51,48,94,86,72,30.23,30.21,30.18,10,10,5,21,14,26,0.00,8,Rain,123
2013-5-26,57,54,51,52,48,45,88,79,72,30.20,30.14,30.02,10,10,5,25,15,31,0.00,8,,115
2013-5-27,64,58,53,57,54,50,100,88,77,30.04,29.91,29.83,10,8,1,16,12,22,0.00,8,,101
2013-5-28,62,58,53,59,56,54,100,94,82,29.83,29.76,29.71,10,7,2,12,6,,0.00,8,Rain,96
2013-5-29,75,63,51,70,62,52,100,90,73,29.81,29.72,29.61,10,7,0,17,6,23,0.00,4,Fog-Rain,126
2013-5-30,73,68,64,68,65,63,100,89,69,29.64,29.55,29.50,10,10,2,17,10,24,0.00,5,Rain-Thunderstorm,145
2013-5-31,69,63,57,64,55,48,100,71,46,29.56,29.51,29.48,10,10,4,12,6,23,0.00,5,Rain-Thunderstorm,177